sat.trackr.live / text

‹ back to catalog

IRIDIUM 146

NORAD 43254 · 2018-030F

PAYLOAD ACTIVE UNKNOWN

§ Identity

Operator
Country
US
Launch date
2018-03-30
Launch site
AFWTR
Launch vehicle
Mass (kg)
RCS (m²)

Purposes: comms

External: N2YO · Heavens-Above · Gunter

§ Orbital elements

Epoch: 2026-09-20T04:45:27.130752Z

Period
100.40 min
Inclination
86.3916°
Eccentricity
0.0002180
Mean motion
14.34217857 rev/d
Perigee alt
776.1 km
Apogee alt
779.2 km
Semi-major
7,155.8 km
B*
3.3557e-5
RAAN
250.6718°
Arg perigee
87.9495°
Mean anomaly
272.1951°
Rev number
44,375

§ Raw data

IRIDIUM 1461 43254U 18030F   26263.19823068  .00000114  00000+0  33557-4 0  99982 43254  86.3916 250.6718 0002180  87.9495 272.1951 14.34217857443757

JSON: /api/v1/satellites/43254 · /tle

For live sub-satellite position, see the globe view (requires WebGL).

§ Visibility from observer

Set your observer location to see the next 7 days of passes ≥ 10°. The values pass through the URL so the page stays shareable.

No JS? Fill the form by hand. The geolocation button needs JavaScript.